Weather Roundup
Issued by NWS

Home | Current Version | Previous Version | Graphics & Text | Print | Product List | Glossary Off
Versions: 1 2 3 4 5 6 7 8 9 10 11 12 13 14 15 16 17 18 19 20 21 22 23 24 25 26 27 28 29 30 31 32 33 34 35 36 37 38 39 40 41 42 43 44 45 46 47 48 49 50

711
NZUS93 KARX 132359
HRRWXR

CURRENT HOURLY OBSERVATIONS ACROSS
MUCH OF THE UPPER MISSISSIPPI VALLEY
NATIONAL WEATHER SERVICE LA CROSSE WI
600 PM CST WED DEC 13 2017


...SOUTHEAST MINNESOTA...


CITY           SKY/WX    TMP DP  RH WIND       PRES   REMARKS
ROCHESTER      CLOUDY    22  18  85 N20G29    29.73R WCI   7
ROCHESTER/MAYO CLOUDY    23  18  79 NW13G21   29.74R WCI  12
WINONA           N/A     25  18  74 N12G22    29.76R WCI  14
AUSTIN         CLOUDY    25  18  74 N22G28    29.75R WCI  10
ALBERT LEA     NOT AVBL
DODGE CENTER   FLURRIES  21  18  86 NW21G26   29.74R WCI   6
PRESTON        CLOUDY    22  17  79 N17G28    29.72R WCI   8
OWATONNA       FLURRIES  25  19  80 NW16      29.78R WCI  12
FARIBAULT      FLURRIES  25  19  80 NW15      29.80R WCI  12
$$

...ELSEWHERE IN MINNESOTA...


CITY           SKY/WX    TMP DP  RH WIND       PRES   REMARKS
MINNEAPOLIS    CLOUDY    24  18  77 NW16      29.82R WCI  11
INTNL FALLS    CLOUDY    17  12  80 N7        29.88R WCI   8
DULUTH         FLURRIES  18  15  88 N8        29.80R WCI   8
RED WING       CLOUDY    25  16  68 NW9       29.79R WCI  15
REDWOOD FALLS  CLOUDY    29  20  69 N15G24    29.86R WCI  18
MANKATO        FLURRIES  25  21  85 N16       29.83R WCI  12
WORTHINGTON    CLOUDY    30  26  85 NW17G23   29.85R WCI  18
FAIRMONT       CLOUDY    29  21  72 N25G38    29.82R WCI  14
$$

...SOUTHWEST WISCONSIN...


CITY           SKY/WX    TMP DP  RH WIND       PRES   REMARKS
LA CROSSE      CLOUDY    24  15  68 N21G28    29.74R WCI   9
PRAIRIE DU CHI CLOUDY    26  15  63 NW16G30   29.68R WCI  14
BOSCOBEL       CLOUDY    26  15  63 N18G28    29.70R WCI  13
LONE ROCK      CLOUDY    24  16  71 NW15G24   29.67R WCI  11
PLATTEVILLE    CLOUDY    27  21  79 NW20G28   29.60R WCI  13
FORT MC COY    CLOUDY    21  14  75 NW9G20    29.70R WCI  10
CAMP DOUGLAS   FLURRIES  19  14  79 NW14G22   29.66R WCI   6
MAUSTON-NEW LI LGT SNOW  20  15  81 NW13G22   29.63R WCI   8
VIROQUA        CLOUDY    21  16  80 N21G28    29.66R WCI   6
WIS DELLS      LGT SNOW  20  15  79 NW16G24   29.58R WCI   6
$$

...ELSEWHERE IN WISCONSIN...


CITY           SKY/WX    TMP DP  RH WIND       PRES   REMARKS
MILWAUKEE      LGT SNOW  28  24  85 NW16G28   29.44R FOG     WCI  16
MADISON        LGT SNOW  22  16  78 NW18G30   29.57R WCI   7
GREEN BAY      LGT SNOW  25  21  85 NE23G32   29.61R FOG     WCI  10
EAU CLAIRE     NOT AVBL
BLACK RVR FLS  FLURRIES  20  12  71 NW9       29.70R WCI  10
MEDFORD        MOCLDY    17  12  81 N9        29.66R WCI   5
WAUSAU         LGT SNOW  18  14  84 N12       29.65R FOG     WCI   5
WIS RAPIDS     FLURRIES  21  16  81 N13       29.66R WCI   9
MARSHFIELD     LGT SNOW  19  15  84 N9        29.66R FOG     WCI   8
RICE LAKE      CLEAR     18  12  80 NW3       29.78R
$$

...NORTHEAST IOWA...


CITY           SKY/WX    TMP DP  RH WIND       PRES   REMARKS
WATERLOO       CLOUDY    30  23  75 NW25G36   29.73R WCI  16
DUBUQUE        CLOUDY    26  19  74 N25G35    29.63R WCI  11
DECORAH        CLOUDY    23  19  86 N18G32    29.69R WCI   9
MASON CITY     CLOUDY    28  21  75 N25G36    29.78R WCI  13
CHARLES CITY   CLOUDY    27  25  93 N21G31    29.74R WCI  13
OELWEIN        CLOUDY    27  21  80 N20G31    29.72R WCI  13
$$

...ELSEWHERE IN IOWA...


CITY           SKY/WX    TMP DP  RH WIND       PRES   REMARKS
DES MOINES     CLOUDY    37  24  59 NW21G36   29.81R WCI  26
IOWA CITY      CLOUDY    34  25  69 NW23G35   29.71R WCI  22
FORT DODGE     CLOUDY    33  20  58 NW18G32   29.82R WCI  22
MARSHALLTOWN   CLOUDY    32  24  72 NW31G40   29.76R WCI  17
CEDAR RAPIDS   CLOUDY    32  25  75 NW28G39   29.69R WCI  18
$$

...NORTHERN ILLINOIS...


CITY           SKY/WX    TMP DP  RH WIND       PRES   REMARKS
CHICAGO-OHARE  CLOUDY    31  20  63 NW28G39   29.44R WCI  17
CHICAGO-MIDWAY CLOUDY    33  22  63 NW22G41   29.45R WCI  21
MOLINE         CLOUDY    36  26  67 NW28G40   29.63R WCI  23
ROCKFORD       CLOUDY    28  18  66 N25G31    29.56R WCI  13
PEORIA         CLOUDY    37  29  72 NW17G33   29.62R WCI  27
$$

NOTE: "FAIR" INDICATES FEW OR NO CLOUDS BELOW 12,000 FEET WITH NO
SIGNIFICANT WEATHER AND/OR OBSTRUCTIONS TO VISIBILITY. WIND
SPEEDS ARE IN MILES-PER-HOUR.




USA.gov is the U.S. government's official web portal to all federal, state and local government web resources and services.